FW8721 Weather Reports


Display with metric or nautical units.
time (UTC)temp
F
wind
direction
speed
MPH
gust
MPH
rain 1hr
in
rain 24hr
in
rain mn
in
humidity
%
barometer
mb
20260508173056 48 331 4.0 7.0 0.00 1.10 0.01 82 1001.7
20260508172551 49 344 4.0 8.0 0.00 1.10 0.01 80 1001.7
20260508172048 50 25 3.0 8.0 0.00 1.10 0.01 81 1001.8
20260508171104 51 33 4.0 8.0 0.00 1.10 0.01 81 1001.9
20260508165103 51 33 4.0 9.0 0.00 1.10 0.01 81 1001.8
20260508164600 51 355 4.0 9.0 0.00 1.10 0.01 82 1001.8
20260508163603 51 337 3.0 8.0 0.00 1.10 0.01 81 1001.7
20260508163102 52 21 3.0 8.0 0.00 1.10 0.01 81 1001.6
20260508162100 53 356 4.0 8.0 0.00 1.10 0.01 79 1001.4
20260508161051 53 52 4.0 9.0 0.00 1.10 0.01 83 1001.3
20260508160548 52 355 5.0 8.0 0.00 1.10 0.01 83 1001.3
20260508155809 52 36 5.0 8.0 0.00 1.10 0.01 83 1001.3
20260508154605 51 40 4.0 9.0 0.00 1.10 0.01 87 1001.7
20260508153546 51 25 4.0 10.0 0.00 1.10 0.01 84 1001.6
20260508152605 50 29 4.0 9.0 0.00 1.10 0.01 85 1001.6
20260508152054 50 28 4.0 10.0 0.00 1.10 0.01 86 1001.6
20260508151049 50 47 5.0 10.0 0.00 1.10 0.01 86 1001.6
20260508150111 50 37 5.0 10.0 0.00 1.10 0.01 86 1001.7
20260508145601 50 48 6.0 10.0 0.00 1.10 0.01 87 1001.8
20260508145102 50 16 5.0 12.0 0.00 1.10 0.01 86 1001.8
20260508144556 49 27 5.0 12.0 0.00 1.10 0.01 87 1001.8
20260508144048 49 35 6.0 11.0 0.00 1.10 0.01 86 1001.8
20260508143102 50 67 6.0 10.0 0.00 1.10 0.01 86 1001.8
20260508142539 50 349 4.0 10.0 0.00 1.10 0.01 87 1001.8
20260508141611 50 2 3.0 8.0 0.00 1.10 0.01 87 1002.0
20260508140603 51 7 3.0 7.0 0.00 1.10 0.01 85 1002.1
20260508140057 52 40 3.0 7.0 0.00 1.10 0.01 83 1002.2
20260508135554 53 347 3.0 5.0 0.00 1.10 0.01 83 1002.2
20260508134556 53 11 1.0 6.0 0.00 1.10 0.01 83 1002.4
20260508133549 52 40 1.0 4.0 0.00 1.10 0.01 84 1002.0
20260508132601 52 21 1.0 5.0 0.00 1.10 0.01 83 1002.0
20260508132045 52 360 1.0 11.0 0.00 1.10 0.01 84 1002.0
20260508131058 51 56 2.0 9.0 0.00 1.10 0.01 84 1001.9
20260508130554 51 109 3.0 9.0 0.00 1.10 0.01 85 1001.9
20260508125553 51 83 4.0 9.0 0.00 1.10 0.01 85 1001.7
20260508124606 50 134 3.0 9.0 0.00 1.10 0.01 86 1001.8
20260508123549 50 104 4.0 10.0 0.00 1.10 0.01 88 1002.0
20260508122554 50 131 3.0 8.0 0.00 1.10 0.01 90 1002.0
20260508121057 49 114 3.0 10.0 0.00 1.10 0.01 92 1001.9
20260508120537 49 110 4.0 9.0 0.00 1.10 0.01 94 1001.9
20260508115604 48 106 4.0 7.0 0.00 1.10 0.01 95 1002.0
20260508115043 48 104 2.0 6.0 0.00 1.10 0.01 96 1001.9
20260508114059 47 52 1.0 7.0 0.00 1.10 0.01 97 1001.8
20260508113127 47 71 2.0 8.0 0.00 1.10 0.01 97 1002.1
20260508112603 46 85 2.0 7.0 0.00 1.10 0.01 98 1002.0
20260508111604 45 104 3.0 6.0 0.00 1.10 0.01 99 1002.1
20260508111057 44 142 1.0 5.0 0.00 1.10 0.01 99 1002.2
20260508110056 44 94 4.0 6.0 0.00 1.10 0.01 99 1002.1
20260508105555 43 101 2.0 6.0 0.00 1.10 0.01 99 1002.2
20260508105052 42 81 2.0 6.0 0.00 1.10 0.01 99 1002.2
20260508104059 41 62 2.0 5.0 0.00 1.10 0.01 99 1002.3
20260508103543 41 76 2.0 5.0 0.00 1.10 0.01 99 1002.3
20260508102555 41 83 2.0 5.0 0.00 1.10 0.01 99 1002.3
20260508101604 41 68 1.0 5.0 0.00 1.10 0.01 99 1002.2
20260508101101 41 69 2.0 6.0 0.00 1.10 0.01 99 1002.1
20260508100559 41 60 3.0 6.0 0.00 1.10 0.01 99 1002.0
20260508095556 40 82 1.0 5.0 0.00 1.10 0.01 99 1001.8
20260508094607 40 57 1.0 3.0 0.00 1.10 0.01 99 1001.9
20260508094052 40 57 1.0 3.0 0.00 1.10 0.01 98 1001.8
20260508093104 40 57 1.0 4.0 0.00 1.10 0.01 98 1001.8
20260508092058 40 57 0.0 2.0 0.00 1.10 0.01 98 1001.9
20260508091559 40 57 0.0 4.0 0.00 1.10 0.01 98 1002.0
20260508090605 40 57 1.0 3.0 0.00 1.10 0.01 98 1001.6
20260508085547 40 60 2.0 5.0 0.00 1.10 0.01 99 1001.4
20260508084601 40 44 4.0 8.0 0.00 1.10 0.01 99 1001.2
20260508083554 40 71 3.0 7.0 0.00 1.10 0.01 99 1001.2
20260508082559 40 50 3.0 8.0 0.00 1.10 0.01 99 1000.8
20260508082049 40 11 5.0 10.0 0.00 1.10 0.01 99 1000.9
20260508081049 40 52 4.0 9.0 0.00 1.10 0.01 99 1001.0
20260508080049 40 57 6.0 11.0 0.00 1.10 0.01 99 1000.9
20260508075048 40 79 4.0 8.0 0.01 1.10 0.01 99 1000.9
20260508074104 40 74 3.0 8.0 0.01 1.10 0.01 99 1001.1
20260508073101 40 73 3.0 6.0 0.01 1.10 0.01 99 1001.3
20260508072551 41 112 4.0 5.0 0.01 1.10 0.01 99 1001.1
20260508072047 41 77 3.0 5.0 0.01 1.10 0.01 99 1001.1
20260508071050 41 65 3.0 6.0 0.01 1.10 0.01 99 1001.3
20260508070053 41 44 3.0 7.0 0.01 1.10 0.01 99 1001.3
20260508065056 41 61 2.0 6.0 0.00 1.09 0.00 99 1001.3
20260508064549 41 36 1.0 5.0 0.00 1.09 0.00 99 1001.2
20260508063603 42 66 1.0 5.0 0.00 1.09 0.00 99 1001.1
20260508062600 42 48 1.0 5.0 0.00 1.09 0.00 99 1001.1
20260508062056 42 34 1.0 4.0 0.00 1.09 0.00 99 1001.2
20260508061538 42 33 0.0 5.0 0.00 1.09 0.00 99 1001.2
20260508060542 42 39 1.0 5.0 0.00 1.09 0.00 99 1001.0
20260508055602 42 64 1.0 4.0 0.00 1.09 0.00 99 1001.3
20260508054559 43 11 0.0 2.0 0.00 1.09 0.00 99 1001.4
20260508054057 43 11 0.0 2.0 0.00 1.09 0.00 99 1001.5
20260508053107 42 11 0.0 2.0 0.00 1.09 0.00 99 1001.6
20260508052550 43 11 0.0 4.0 0.00 1.09 0.00 99 1001.6
20260508051602 42 41 2.0 5.0 0.00 1.09 0.00 99 1001.4
20260508051057 42 30 1.0 5.0 0.00 1.09 0.00 99 1001.4
20260508050058 42 56 2.0 5.0 0.00 1.09 0.00 99 1001.4
20260508045102 43 32 2.0 5.0 0.00 1.09 0.00 99 1001.4
20260508044603 44 352 1.0 4.0 0.00 1.09 0.00 99 1001.4
20260508044041 44 351 1.0 4.0 0.00 1.09 0.00 99 1001.4
20260508043106 44 38 1.0 2.0 0.00 1.09 0.00 99 1001.4
20260508042554 44 38 0.0 4.0 0.00 1.09 0.00 99 1001.5
20260508041600 44 38 1.0 4.0 0.00 1.09 0.00 99 1001.7
20260508041057 44 38 0.0 2.0 0.00 1.09 0.00 99 1001.6
20260508040548 44 38 1.0 2.0 0.00 1.09 0.00 99 1001.7
20260508035559 44 360 0.0 5.0 0.00 1.09 0.00 99 1001.7
20260508035054 43 360 1.0 5.0 0.00 1.09 0.00 99 1001.8
20260508034551 43 358 1.0 5.0 0.00 1.09 0.00 98 1001.9
20260508033602 44 64 1.0 5.0 0.00 1.09 0.00 99 1001.9
20260508032555 44 327 1.0 4.0 0.00 1.09 0.00 99 1001.9
20260508032050 44 21 0.0 4.0 0.00 1.09 0.00 99 1001.9
20260508031051 44 3 0.0 4.0 0.00 1.09 0.00 99 1002.0
20260508030114 44 337 1.0 4.0 0.01 1.09 0.00 99 1001.9
20260508025558 45 337 1.0 5.0 0.01 1.09 1.09 99 1001.9
20260508024605 45 309 1.0 4.0 0.02 1.09 1.09 99 1001.6
20260508023552 45 125 1.0 3.0 0.02 1.09 1.09 99 1001.8
20260508022602 45 196 1.0 2.0 0.02 1.09 1.09 99 1002.1
20260508022049 45 335 0.0 1.0 0.02 1.09 1.09 99 1001.8
20260508021058 45 335 0.0 4.0 0.04 1.09 1.09 99 1001.9
20260508020103 45 347 1.0 4.0 0.04 1.09 1.09 99 1002.2
20260508015550 45 347 0.0 4.0 0.04 1.09 1.09 99 1002.2
20260508015044 45 347 1.0 4.0 0.04 1.09 1.09 99 1002.4
20260508014059 45 347 0.0 6.0 0.04 1.08 1.08 99 1002.3
20260508013115 45 327 3.0 6.0 0.04 1.07 1.07 98 1002.0
20260508012556 45 347 2.0 7.0 0.05 1.07 1.07 99 1002.1
20260508012050 45 288 3.0 7.0 0.05 1.07 1.07 98 1002.0
20260508011058 45 42 2.0 6.0 0.05 1.05 1.05 98 1002.1
20260508010105 45 350 3.0 6.0 0.07 1.04 1.04 98 1002.1
20260508005103 45 347 1.0 4.0 0.10 1.04 1.04 98 1002.1
20260508004559 45 97 0.0 4.0 0.11 1.04 1.04 98 1002.1
20260508003556 45 216 0.0 2.0 0.15 1.04 1.04 98 1002.1
20260508003059 45 220 0.0 2.0 0.17 1.03 1.03 98 1002.2
20260508002050 45 242 0.0 4.0 0.20 1.02 1.02 98 1002.2
20260508001110 45 243 3.0 6.0 0.19 1.00 1.00 98 1002.0
20260508000057 45 276 2.0 6.0 0.17 0.98 0.98 98 1001.9
20260507235056 45 166 4.0 9.0 0.13 0.94 0.94 97 1001.8
20260507234543 45 216 5.0 12.0 0.12 0.93 0.93 97 1001.7
20260507233600 44 223 7.0 13.0 0.07 0.88 0.88 96 1001.6
20260507232600 45 227 7.0 15.0 0.02 0.83 0.83 95 1001.5
20260507231556 45 278 6.0 15.0 0.00 0.81 0.81 92 1001.4
20260507230603 50 235 4.0 19.0 0.00 0.81 0.81 87 1001.3
20260507225605 54 247 11.0 24.0 0.00 0.81 0.81 90 1000.8
20260507225105 54 237 11.0 25.0 0.00 0.81 0.81 90 1000.7
20260507224600 55 232 10.0 23.0 0.00 0.81 0.81 90 1000.6
20260507224051 55 229 12.0 23.0 0.00 0.81 0.81 90 1000.6
20260507223100 54 208 11.0 25.0 0.00 0.81 0.81 90 1000.5
20260507222104 54 200 11.0 26.0 0.00 0.81 0.81 91 1000.6
20260507221544 54 225 14.0 25.0 0.00 0.81 0.81 91 1000.6
20260507220602 54 210 11.0 25.0 0.00 0.81 0.81 91 1000.5
20260507220051 54 212 13.0 25.0 0.00 0.81 0.81 92 1000.5
20260507215100 53 193 11.0 20.0 0.00 0.81 0.81 92 1000.4
20260507214100 54 200 11.0 26.0 0.00 0.81 0.81 92 1000.3
20260507213559 54 202 13.0 23.0 0.00 0.81 0.81 92 1000.3
20260507213056 53 215 13.0 23.0 0.00 0.81 0.81 93 1000.2
20260507212557 54 157 13.0 23.0 0.00 0.81 0.81 92 1000.1
20260507211552 54 190 15.0 28.0 0.00 0.81 0.81 92 1000.1
20260507210602 53 210 14.0 30.0 0.01 0.81 0.81 94 1000.1
20260507205600 53 200 17.0 28.0 0.02 0.81 0.81 95 1000.0
20260507204600 53 178 14.0 29.0 0.06 0.81 0.81 97 1000.1
20260507203559 51 178 16.0 27.0 0.09 0.81 0.81 97 999.8
20260507203101 51 206 17.0 27.0 0.10 0.81 0.81 97 999.6
20260507202058 51 185 18.0 30.0 0.12 0.81 0.81 97 999.1
20260507201558 51 221 21.0 31.0 0.13 0.81 0.81 97 998.9
20260507200547 51 158 23.0 37.0 0.15 0.80 0.80 97 998.5
20260507195556 51 142 22.0 34.0 0.17 0.79 0.79 97 999.3
20260507194554 51 173 19.0 35.0 0.16 0.76 0.76 97 999.8
20260507193106 52 208 12.0 22.0 0.14 0.70 0.70 97 1001.7
20260507192100 52 221 13.0 23.0 0.16 0.69 0.69 97 1002.2
20260507191600 52 208 13.0 27.0 0.17 0.68 0.68 97 1002.1
20260507191054 52 229 16.0 31.0 0.17 0.65 0.65 97 1002.0
20260507185548 53 202 18.0 30.0 0.22 0.62 0.62 97 1002.3
20260507184606 53 144 19.0 36.0 0.28 0.60 0.60 97 1002.2
20260507183543 53 188 22.0 37.0 0.42 0.57 0.57 97 1001.8
20260507182604 53 179 29.0 42.0 0.50 0.54 0.54 97 1001.8
20260507182057 53 210 28.0 46.0 0.50 0.52 0.52 97 1001.9
20260507181548 53 205 28.0 46.0 0.48 0.50 0.50 97 1001.8
20260507180603 53 185 30.0 46.0 0.45 0.46 0.46 97 1001.8
20260507180056 53 247 27.0 42.0 0.43 0.43 0.43 97 1002.0
20260507175101 53 170 12.0 23.0 0.36 0.36 0.36 97 1002.9
20260507174055 54 224 16.0 32.0 0.21 0.21 0.21 97 1002.5